GW1009 Weather Reports


time (UTC)temp
F
wind
direction
speed
knots
gust
knots
rain 1hr
in
rain 24hr
in
rain mn
in
humidity
%
barometer
mb
20260906231511 64 294 1.7 3.5 0.00 0.00 0.00 58 1015.5
20260906231011 64 304 0.9 4.3 0.00 0.00 0.00 56 1015.5
20260906230513 65 300 1.7 4.3 0.00 0.00 0.00 55 1015.4
20260906230013 65 313 2.6 4.3 0.00 0.00 0.00 55 1015.5
20260906225511 65 302 1.7 5.2 0.00 0.00 0.00 55 1015.4
20260906225011 65 285 1.7 4.3 0.00 0.00 0.00 55 1015.4
20260906224511 65 325 1.7 4.3 0.00 0.00 0.00 56 1015.4
20260906224012 66 304 1.7 5.2 0.00 0.00 0.00 55 1015.4
20260906223511 66 305 2.6 7.8 0.00 0.00 0.00 55 1015.4
20260906223010 66 311 3.5 9.6 0.00 0.00 0.00 54 1015.4
20260906222510 66 293 4.3 9.6 0.00 0.00 0.00 52 1015.3
20260906222111 66 315 3.5 9.6 0.00 0.00 0.00 52 1015.3
20260906221509 67 316 4.3 9.6 0.00 0.00 0.00 51 1015.3
20260906221009 67 304 4.3 9.6 0.00 0.00 0.00 51 1015.3
20260906220509 67 331 5.2 8.7 0.00 0.00 0.00 51 1015.3
20260906220008 67 281 3.5 8.7 0.00 0.00 0.00 51 1015.3
20260906215609 67 304 5.2 8.7 0.00 0.00 0.00 51 1015.3
20260906215008 67 305 5.2 10.4 0.00 0.00 0.00 50 1015.1
20260906214509 67 317 5.2 10.4 0.00 0.00 0.00 51 1015.2
20260906214007 68 316 6.1 12.2 0.00 0.00 0.00 49 1015.3
20260906213511 68 320 4.3 12.2 0.00 0.00 0.00 48 1015.4
20260906213006 68 355 4.3 8.7 0.00 0.00 0.00 49 1015.4
20260906212506 68 298 5.2 13.9 0.00 0.00 0.00 50 1015.3
20260906212006 68 289 7.8 13.9 0.00 0.00 0.00 50 1015.3
20260906211505 68 310 6.1 12.2 0.00 0.00 0.00 52 1015.2
20260906211005 68 306 7.8 13.0 0.00 0.00 0.00 53 1015.3
20260906210507 68 338 8.7 13.0 0.00 0.00 0.00 51 1015.2
20260906210004 68 300 4.3 13.9 0.00 0.00 0.00 54 1015.2
20260906205507 68 351 8.7 13.9 0.00 0.00 0.00 52 1015.2
20260906205009 67 315 5.2 13.0 0.00 0.00 0.00 53 1015.1
20260906204505 67 321 7.8 13.0 0.00 0.00 0.00 55 1015.1
20260906204004 67 299 6.1 13.9 0.00 0.00 0.00 55 1015.1
20260906203506 67 321 4.3 9.6 0.00 0.00 0.00 55 1015.2
20260906203004 68 336 3.5 8.7 0.00 0.00 0.00 54 1015.2
20260906202503 68 327 3.5 9.6 0.00 0.00 0.00 55 1015.2
20260906202003 68 293 4.3 11.3 0.00 0.00 0.00 54 1015.1
20260906201503 68 320 6.1 11.3 0.00 0.00 0.00 53 1015.1
20260906201003 67 311 3.5 7.8 0.00 0.00 0.00 58 1015.0
20260906200502 67 299 3.5 11.3 0.00 0.00 0.00 56 1015.1
20260906200004 67 321 5.2 11.3 0.00 0.00 0.00 56 1015.1
20260906195503 68 310 2.6 9.6 0.00 0.00 0.00 56 1015.0
20260906195002 69 331 4.3 10.4 0.00 0.00 0.00 55 1015.0
20260906194502 69 327 3.5 10.4 0.00 0.00 0.00 54 1015.0
20260906194001 69 307 5.2 9.6 0.00 0.00 0.00 54 1014.9
20260906193501 68 320 2.6 7.8 0.00 0.00 0.00 52 1015.0
20260906193001 68 309 2.6 10.4 0.00 0.00 0.00 53 1015.0
20260906192501 68 331 5.2 10.4 0.00 0.00 0.00 53 1015.0
20260906192105 68 323 4.3 11.3 0.00 0.00 0.00 54 1015.0
20260906191621 68 355 7.0 11.3 0.00 0.00 0.00 53 1015.2
20260906191100 69 336 5.2 11.3 0.00 0.00 0.00 51 1015.1
20260906191001 69 314 2.6 11.3 0.00 0.00 0.00 53 1015.1
20260906190559 69 302 7.0 11.3 0.00 0.00 0.00 53 1015.1
20260906185558 68 296 3.5 5.2 0.00 0.00 0.00 57 1015.2
20260906185058 68 305 2.6 5.2 0.00 0.00 0.00 52 1015.1
20260906184558 68 27 1.7 5.2 0.00 0.00 0.00 53 1015.1
20260906184100 68 300 1.7 7.0 0.00 0.00 0.00 53 1015.2
20260906183558 68 316 3.5 7.0 0.00 0.00 0.00 52 1015.3
20260906183101 68 104 1.7 8.7 0.00 0.00 0.00 54 1015.3
20260906182557 68 319 4.3 8.7 0.00 0.00 0.00 52 1015.4
20260906182056 68 323 2.6 7.8 0.00 0.00 0.00 52 1015.3
20260906181557 68 36 3.5 7.0 0.00 0.00 0.00 52 1015.3
20260906181056 68 52 3.5 7.0 0.00 0.00 0.00 57 1015.4
20260906180555 67 11 0.9 5.2 0.00 0.00 0.00 56 1015.5
20260906180057 68 314 2.6 11.3 0.00 0.00 0.00 53 1015.5
20260906175553 68 332 3.5 11.3 0.00 0.00 0.00 59 1015.5
20260906175056 67 344 1.7 5.2 0.00 0.00 0.00 57 1015.5
20260906174606 67 17 2.6 9.6 0.00 0.00 0.00 55 1015.5
20260906174053 67 350 3.5 8.7 0.00 0.00 0.00 54 1015.5
20260906173553 67 321 2.6 8.7 0.00 0.00 0.00 60 1015.5
20260906173051 67 306 4.3 8.7 0.00 0.00 0.00 55 1015.6
20260906172551 66 78 2.6 7.8 0.00 0.00 0.00 55 1015.7
20260906172050 66 68 3.5 7.0 0.00 0.00 0.00 55 1015.7
20260906171550 66 5 2.6 10.4 0.00 0.00 0.00 56 1015.7
20260906171049 66 302 2.6 10.4 0.00 0.00 0.00 55 1015.7
20260906170551 66 355 2.6 10.4 0.00 0.00 0.00 57 1015.6
20260906170049 66 339 5.2 9.6 0.00 0.00 0.00 58 1015.6
20260906165549 66 317 4.3 8.7 0.00 0.00 0.00 58 1015.6
20260906165049 67 335 4.3 8.7 0.00 0.00 0.00 58 1015.6
20260906164548 66 311 2.6 9.6 0.00 0.00 0.00 59 1015.5
20260906164048 66 344 3.5 9.6 0.00 0.00 0.00 58 1015.7
20260906163549 65 304 4.3 10.4 0.00 0.00 0.00 60 1015.6
20260906163052 66 328 5.2 10.4 0.00 0.00 0.00 59 1015.6
20260906162548 66 318 4.3 10.4 0.00 0.00 0.00 61 1015.6
20260906162047 66 321 1.7 7.8 0.00 0.00 0.00 59 1015.7
20260906161549 65 301 3.5 8.7 0.00 0.00 0.00 65 1015.7
20260906161047 64 314 4.3 10.4 0.00 0.00 0.00 61 1015.8
20260906160546 65 327 7.8 10.4 0.00 0.00 0.00 61 1015.9
20260906160045 65 319 3.5 9.6 0.00 0.00 0.00 59 1015.8
20260906155545 66 301 4.3 9.6 0.00 0.00 0.00 58 1015.9
20260906155044 66 9 4.3 8.7 0.00 0.00 0.00 60 1015.8
20260906154544 65 292 1.7 7.8 0.00 0.00 0.00 62 1015.8
20260906154044 65 278 0.9 6.1 0.00 0.00 0.00 63 1015.9
20260906153547 64 302 1.7 12.2 0.00 0.00 0.00 62 1016.0
20260906153052 64 333 3.5 12.2 0.00 0.00 0.00 61 1015.9
20260906152544 65 325 4.3 11.3 0.00 0.00 0.00 61 1015.9
20260906152042 65 315 6.1 10.4 0.00 0.00 0.00 59 1015.9
20260906151542 65 288 3.5 8.7 0.00 0.00 0.00 61 1015.8
20260906151040 65 344 3.5 8.7 0.00 0.00 0.00 62 1015.8
20260906150540 64 300 2.6 9.6 0.00 0.00 0.00 62 1015.6
20260906150040 64 44 4.3 9.6 0.00 0.00 0.00 61 1015.8
20260906145539 65 285 5.2 7.8 0.00 0.00 0.00 63 1015.7
20260906145041 65 53 2.6 7.8 0.00 0.00 0.00 61 1015.7
20260906144540 64 355 2.6 7.8 0.00 0.00 0.00 63 1015.7
20260906144038 64 28 3.5 10.4 0.00 0.00 0.00 62 1015.7
20260906143538 65 13 4.3 10.4 0.00 0.00 0.00 63 1015.8
20260906143037 64 331 2.6 11.3 0.00 0.00 0.00 65 1015.7
20260906142536 63 71 1.7 11.3 0.00 0.00 0.00 62 1015.6
20260906142038 63 311 3.5 12.2 0.00 0.00 0.00 63 1015.6
20260906141538 63 298 6.1 12.2 0.00 0.00 0.00 63 1015.6
20260906141034 63 288 5.2 11.3 0.00 0.00 0.00 66 1015.5
20260906140534 63 155 3.5 8.7 0.00 0.00 0.00 65 1015.5
20260906140037 63 13 3.5 8.7 0.00 0.00 0.00 63 1015.4
20260906135532 63 222 2.6 8.7 0.00 0.00 0.00 66 1015.4
20260906135030 63 38 2.6 8.7 0.00 0.00 0.00 66 1015.3
20260906134529 62 355 3.5 9.6 0.00 0.00 0.00 74 1015.4
20260906134027 62 323 2.6 9.6 0.00 0.00 0.00 75 1015.4
20260906133527 62 327 2.6 7.8 0.00 0.00 0.00 75 1015.4
20260906133036 61 297 3.5 7.8 0.00 0.00 0.00 76 1015.4
20260906132524 60 355 4.3 7.8 0.00 0.00 0.00 77 1015.3
20260906132021 60 5 4.3 7.8 0.00 0.00 0.00 82 1015.4
20260906131521 60 294 2.6 7.0 0.00 0.00 0.00 85 1015.3
20260906131022 60 313 3.5 9.6 0.00 0.00 0.00 86 1015.4
20260906130519 59 318 5.2 10.4 0.00 0.00 0.00 89 1015.4
20260906130019 59 28 3.5 7.8 0.00 0.00 0.00 91 1015.3
20260906125516 59 355 1.7 7.8 0.00 0.00 0.00 93 1015.4
20260906125016 59 323 3.5 7.8 0.00 0.00 0.00 93 1015.3
20260906124519 59 290 1.7 7.8 0.00 0.00 0.00 94 1015.3
20260906124013 59 304 2.6 7.8 0.00 0.00 0.00 94 1015.3
20260906123512 58 317 3.5 7.8 0.00 0.00 0.00 95 1015.3
20260906123027 58 313 2.6 5.2 0.00 0.00 0.00 95 1015.2
20260906122509 58 296 2.6 4.3 0.00 0.00 0.00 95 1015.2
20260906122006 58 321 2.6 5.2 0.00 0.00 0.00 95 1015.0
20260906121508 58 327 3.5 5.2 0.00 0.00 0.00 95 1014.9
20260906121005 58 309 2.6 3.5 0.00 0.00 0.00 95 1014.9
20260906120503 57 329 0.9 3.5 0.00 0.00 0.00 95 1014.7
20260906120002 57 313 0.9 2.6 0.00 0.00 0.00 95 1014.8
20260906115502 57 309 1.7 2.6 0.00 0.00 0.00 95 1014.8
20260906115001 57 295 0.0 2.6 0.00 0.00 0.00 95 1014.7
20260906114501 57 295 0.9 2.6 0.00 0.00 0.00 95 1014.7
20260906114001 57 315 0.9 3.5 0.00 0.00 0.00 95 1014.7
20260906113501 57 360 1.7 3.5 0.00 0.00 0.00 95 1014.6
20260906113002 57 319 1.7 3.5 0.00 0.00 0.00 95 1014.6
20260906112501 57 321 1.7 3.5 0.00 0.00 0.00 95 1014.7
20260906112100 56 336 1.7 3.5 0.00 0.00 0.00 95 1014.6
20260906111625 56 360 0.0 3.5 0.00 0.00 0.00 95 1014.6
20260906111101 56 308 1.7 3.5 0.00 0.00 0.00 95 1014.5
20260906110558 57 307 0.0 0.0 0.00 0.00 0.00 95 1014.4
20260906110058 57 307 0.0 2.6 0.00 0.00 0.00 95 1014.3
20260906105557 57 307 0.0 4.3 0.00 0.00 0.00 95 1014.3
20260906105100 57 307 0.9 4.3 0.00 0.00 0.00 95 1014.3
20260906104601 57 309 1.7 4.3 0.00 0.00 0.00 95 1014.1
20260906104055 57 317 1.7 3.5 0.00 0.00 0.00 95 1014.1
20260906103555 56 281 0.0 0.0 0.00 0.00 0.00 95 1014.0
20260906103055 56 282 0.0 1.7 0.00 0.00 0.00 95 1014.0
20260906102554 56 281 0.0 3.5 0.00 0.00 0.00 95 1014.0
20260906102053 56 296 0.0 3.5 0.00 0.00 0.00 95 1014.0
20260906101553 56 300 0.0 0.0 0.00 0.00 0.00 95 1013.9
20260906101056 56 278 0.0 0.0 0.00 0.00 0.00 94 1013.8
20260906100552 56 278 0.0 0.0 0.00 0.00 0.00 94 1013.7
20260906100051 56 243 0.0 0.0 0.00 0.00 0.00 94 1013.6
20260906095552 56 243 0.0 0.0 0.00 0.00 0.00 94 1013.5
20260906095049 56 243 0.0 0.0 0.00 0.00 0.00 94 1013.5
20260906094548 56 243 0.0 0.0 0.00 0.00 0.00 94 1013.3
20260906094049 56 243 0.0 0.0 0.00 0.00 0.00 94 1013.3
20260906093548 56 242 0.0 0.0 0.00 0.00 0.00 94 1013.2
20260906093056 56 242 0.0 0.0 0.00 0.00 0.00 94 1013.3
20260906092547 56 242 0.0 0.0 0.00 0.00 0.00 94 1013.2
20260906092046 56 242 0.0 0.0 0.00 0.00 0.00 94 1013.1
20260906091546 56 242 0.0 0.0 0.00 0.00 0.00 94 1013.1
20260906091046 56 263 0.0 0.0 0.00 0.00 0.00 94 1013.1
20260906090545 56 265 0.0 0.0 0.00 0.00 0.00 94 1013.1
20260906090046 56 360 0.0 0.0 0.00 0.00 0.00 94 1013.0
20260906085545 56 265 0.0 0.0 0.00 0.00 0.00 94 1013.0
20260906085045 56 265 0.0 0.0 0.00 0.00 0.00 94 1013.1
20260906084548 56 265 0.0 0.0 0.00 0.00 0.00 94 1013.1
20260906084045 56 265 0.0 0.0 0.00 0.00 0.00 94 1012.9
20260906083543 56 265 0.0 0.0 0.00 0.00 0.00 94 1012.8
20260906083043 56 267 0.0 0.0 0.00 0.00 0.00 94 1012.8
20260906082542 56 267 0.0 0.0 0.00 0.00 0.00 93 1012.8
20260906082041 56 267 0.0 0.0 0.00 0.00 0.00 94 1012.8
20260906081550 56 266 0.0 0.0 0.00 0.00 0.00 93 1012.7
20260906081040 56 267 0.0 0.0 0.00 0.00 0.00 93 1012.7
20260906080540 56 267 0.0 0.0 0.00 0.00 0.00 93 1012.6
20260906080040 56 266 0.0 0.0 0.00 0.00 0.00 93 1012.7
20260906075539 56 267 0.0 0.0 0.00 0.00 0.00 93 1012.7
20260906075039 57 267 0.0 0.0 0.00 0.00 0.00 93 1012.6
20260906074539 57 267 0.0 0.0 0.00 0.00 0.00 93 1012.7
20260906074039 57 267 0.0 0.0 0.00 0.00 0.00 93 1012.6
20260906073538 57 267 0.0 0.0 0.00 0.00 0.00 93 1012.6
20260906073050 57 267 0.0 0.0 0.00 0.00 0.00 93 1012.6
20260906072538 57 267 0.0 0.0 0.00 0.00 0.00 93 1012.5
20260906072037 57 267 0.0 0.0 0.00 0.00 0.00 93 1012.5
20260906071537 56 267 0.0 0.0 0.00 0.00 0.00 93 1012.5
20260906071037 56 267 0.0 0.0 0.00 0.00 0.00 93 1012.6
20260906070537 56 267 0.0 0.0 0.00 0.00 0.00 92 1012.5
20260906070040 56 267 0.0 0.0 0.00 0.00 0.00 92 1012.6
20260906065538 56 267 0.0 0.0 0.00 0.00 0.00 92 1012.5
20260906065035 57 267 0.0 0.0 0.00 0.00 0.00 92 1012.5
20260906064535 57 267 0.0 0.0 0.00 0.00 0.00 92 1012.5
20260906064035 57 267 0.0 0.0 0.00 0.00 0.00 92 1012.4
20260906063533 57 267 0.0 0.0 0.00 0.00 0.00 92 1012.3
20260906063033 57 267 0.0 0.0 0.00 0.00 0.00 92 1012.2
20260906062533 57 267 0.0 0.0 0.00 0.00 0.00 92 1012.2
20260906062032 57 267 0.0 0.0 0.00 0.00 0.00 91 1012.2
20260906061530 57 267 0.0 0.0 0.00 0.00 0.00 91 1012.2
20260906061030 57 267 0.0 0.0 0.00 0.00 0.00 91 1012.3
20260906060532 58 267 0.0 0.0 0.00 0.00 0.00 91 1012.3
20260906060028 58 267 0.0 0.0 0.00 0.00 0.00 91 1012.4
20260906055528 58 267 0.0 0.0 0.00 0.00 0.00 91 1012.4
20260906055028 58 267 0.0 0.0 0.00 0.00 0.00 91 1012.4
20260906054527 58 267 0.0 0.0 0.00 0.00 0.00 90 1012.5
20260906054027 58 267 0.0 0.0 0.00 0.00 0.00 90 1012.5
20260906053525 58 267 0.0 0.0 0.00 0.00 0.00 90 1012.5
20260906053034 59 267 0.0 0.0 0.00 0.00 0.00 90 1012.5
20260906052526 59 267 0.0 0.0 0.00 0.00 0.00 90 1012.5
20260906052025 59 267 0.0 0.0 0.00 0.00 0.00 90 1012.5
20260906051524 59 267 0.0 0.0 0.00 0.00 0.00 90 1012.6
20260906051027 59 267 0.0 0.0 0.00 0.00 0.00 90 1012.5
20260906050523 59 267 0.0 0.0 0.00 0.00 0.00 90 1012.5
20260906050023 59 267 0.0 0.0 0.00 0.00 0.00 90 1012.6
20260906045523 59 267 0.0 0.0 0.00 0.00 0.00 90 1012.6
20260906045024 59 267 0.0 0.0 0.00 0.00 0.00 90 1012.5
20260906044523 59 267 0.0 0.0 0.00 0.00 0.00 90 1012.5
20260906044022 59 267 0.0 0.0 0.00 0.00 0.00 90 1012.6
20260906043523 59 267 0.0 0.0 0.00 0.00 0.00 90 1012.6
20260906043038 59 267 0.0 0.0 0.00 0.00 0.00 90 1012.6
20260906042521 59 267 0.0 0.0 0.00 0.00 0.00 90 1012.6
20260906042020 59 267 0.0 0.0 0.00 0.00 0.00 90 1012.6
20260906041520 59 267 0.0 0.0 0.00 0.00 0.00 90 1012.6
20260906041020 59 267 0.0 0.0 0.00 0.00 0.00 90 1012.6
20260906040520 59 267 0.0 0.0 0.00 0.00 0.00 90 1012.5
20260906040019 59 267 0.0 0.0 0.00 0.00 0.00 90 1012.6
20260906035519 59 267 0.0 0.0 0.00 0.00 0.00 90 1012.6
20260906035019 59 267 0.0 0.0 0.00 0.00 0.00 90 1012.6
20260906034524 59 267 0.0 0.0 0.00 0.00 0.00 90 1012.6
20260906034017 59 267 0.0 0.0 0.00 0.00 0.00 90 1012.5
20260906033517 59 267 0.0 0.0 0.00 0.00 0.00 90 1012.5
20260906033017 59 267 0.0 0.0 0.00 0.00 0.00 90 1012.5
20260906032517 59 267 0.0 0.0 0.00 0.00 0.00 90 1012.5
20260906032017 59 267 0.0 0.0 0.00 0.00 0.00 90 1012.5
20260906031516 59 267 0.0 0.0 0.00 0.00 0.00 90 1012.5
20260906031016 59 267 0.0 0.0 0.00 0.00 0.00 90 1012.4
20260906030516 59 267 0.0 0.0 0.00 0.00 0.00 90 1012.3
20260906030016 59 267 0.0 0.0 0.00 0.00 0.00 90 1012.3
20260906025515 59 267 0.0 0.0 0.00 0.00 0.00 90 1012.3
20260906025017 59 267 0.0 0.0 0.00 0.00 0.00 90 1012.2
20260906024515 59 267 0.0 0.0 0.00 0.00 0.00 90 1012.3
20260906024016 59 360 0.0 0.0 0.00 0.00 0.00 90 1012.3
20260906023515 59 360 0.0 0.0 0.00 0.00 0.00 90 1012.3
20260906023016 59 241 0.0 0.0 0.00 0.00 0.00 89 1012.3
20260906022515 59 267 0.0 0.0 0.00 0.00 0.00 89 1012.3
20260906022014 59 267 0.0 0.0 0.00 0.00 0.00 89 1012.3
20260906021515 59 267 0.0 0.0 0.00 0.00 0.00 89 1012.3
20260906021014 60 267 0.0 0.0 0.00 0.00 0.00 89 1012.3
20260906020515 60 268 0.0 0.0 0.00 0.00 0.00 89 1012.2
20260906020016 60 268 0.0 0.0 0.00 0.00 0.00 88 1012.3
20260906015513 60 268 0.0 0.0 0.00 0.00 0.00 88 1012.4
20260906015013 60 268 0.0 0.0 0.00 0.00 0.00 88 1012.4
20260906014520 60 268 0.0 0.0 0.00 0.00 0.00 88 1012.3
20260906014012 60 268 0.0 0.0 0.00 0.00 0.00 88 1012.3
20260906013512 61 268 0.0 0.0 0.00 0.00 0.00 88 1012.2
20260906013012 61 275 0.0 0.0 0.00 0.00 0.00 88 1012.2
20260906012517 61 287 0.0 0.0 0.00 0.00 0.00 88 1012.2
20260906012011 61 288 0.0 0.0 0.00 0.00 0.00 88 1012.2
20260906011511 60 227 0.0 0.0 0.00 0.00 0.00 88 1012.3
20260906011015 60 227 0.0 0.0 0.00 0.00 0.00 88 1012.3
20260906010510 60 223 0.0 0.0 0.00 0.00 0.00 88 1012.2
20260906010011 60 222 0.0 0.0 0.00 0.00 0.00 88 1012.1
20260906005510 61 222 0.0 0.0 0.00 0.00 0.00 88 1012.2
20260906005010 61 222 0.0 0.9 0.00 0.00 0.00 87 1012.1
20260906004510 61 220 0.0 0.0 0.00 0.00 0.00 87 1012.0
20260906004013 61 220 0.0 0.0 0.00 0.00 0.00 87 1011.9
20260906003510 61 220 0.0 0.0 0.00 0.00 0.00 87 1011.7
20260906003010 61 220 0.0 0.0 0.00 0.00 0.00 87 1011.8
20260906002510 61 220 0.0 0.0 0.00 0.00 0.00 87 1011.9
20260906002009 61 220 0.0 0.0 0.00 0.00 0.00 86 1012.0
20260906001509 61 220 0.0 0.0 0.00 0.00 0.00 86 1012.1
20260906001008 61 220 0.0 0.0 0.00 0.00 0.00 86 1012.1
20260906000507 61 220 0.0 0.0 0.00 0.00 0.00 86 1011.9
20260906000008 62 220 0.0 0.0 0.00 0.00 0.00 85 1011.9
20260905235507 62 218 0.0 0.0 0.00 0.00 0.00 85 1012.0
20260905235009 62 220 0.0 0.0 0.00 0.00 0.00 84 1011.9
20260905234506 62 360 0.0 0.0 0.00 0.00 0.00 84 1011.8
20260905234007 62 220 0.0 0.0 0.00 0.00 0.00 84 1011.7
20260905233507 63 360 0.0 0.0 0.00 0.00 0.00 83 1011.7
20260905233010 63 360 0.0 0.0 0.00 0.00 0.00 82 1011.8
20260905232506 63 360 0.0 1.7 0.00 0.00 0.00 82 1011.7
20260905232006 64 220 0.0 1.7 0.00 0.00 0.00 81 1011.7